Progress Software Price to Free Cash Flow Ratio 2010-2024 | PRGS

Historical price to free cash flow ratio values for Progress Software (PRGS) since 2010. For more information on how our historical price data is adjusted see the Stock Price Adjustment Guide.
Progress Software Price to Free Cash Flow Ratio Historical Data
Date Stock Price TTM FCF per Share Price to FCF Ratio
2024-04-24 51.63 12.03
2024-02-29 53.36 $4.29 12.44
2023-11-30 53.68 $3.77 14.24
2023-08-31 60.44 $3.87 15.62
2023-05-31 59.44 $3.80 15.65
2023-02-28 56.74 $4.87 11.65
2022-11-30 52.51 $4.79 10.96
2022-08-31 47.24 $4.92 9.61
2022-05-31 47.25 $4.79 9.86
2022-02-28 42.95 $3.89 11.04
2021-11-30 47.03 $3.90 12.07
2021-08-31 45.03 $3.86 11.67
2021-05-31 42.94 $3.73 11.51
2021-02-28 40.83 $3.35 12.20
2020-11-30 38.33 $3.07 12.48
2020-08-31 36.06 $2.93 12.30
2020-05-31 38.28 $2.86 13.38
2020-02-29 35.19 $1.11 31.75
2019-11-30 39.47 $0.88 44.68
2019-08-31 35.36 $0.59 59.60
2019-05-31 38.18 $0.91 41.79
2018-11-30 32.51 $2.47 13.14
2018-08-31 37.68 $3.60 10.45
2018-05-31 34.75 $3.67 9.47
2018-02-28 42.84 $3.08 13.89
2017-11-30 37.67 $2.91 12.94
2019-02-28 34.15 $2.06 16.57
2017-08-31 30.50 $2.16 14.10
2017-05-31 26.42 $2.26 11.71
2017-02-28 25.84 $2.31 11.19
2016-11-30 26.53 $1.96 13.52
2016-08-31 25.92 $1.84 14.09
2016-05-31 23.52 $1.80 13.03
2016-02-29 22.53 $1.63 13.84
2015-11-30 21.43 $1.90 11.29
2015-08-31 24.20 $2.10 11.50
2015-05-31 23.52 $2.22 10.61
2015-02-28 24.42 $2.18 11.20
2014-11-30 23.04 $1.86 12.37
2014-08-31 20.69 $1.43 14.42
2014-05-31 19.40 $0.91 21.40
2014-02-28 22.28 $0.80 28.01
2013-11-30 23.53 $-0.01 0.00
2013-08-31 21.85 $0.14 161.86
2013-05-31 21.00 $0.51 41.16
2013-02-28 20.12 $-0.64 0.00
2012-11-30 17.97 $-0.04 0.00
2012-08-31 17.18 $-0.09 0.00
2012-05-31 17.17 $0.08 211.72
2011-11-30 18.20 $1.71 10.66
2011-08-31 18.60 $2.28 8.17
2011-05-31 24.18 $2.44 9.92
2011-02-28 26.23 $2.20 11.95
2010-11-30 22.94 $1.70 13.52
2012-02-29 20.74 $1.50 13.83
2010-08-31 15.91 $1.37 11.59
2010-05-31 19.02 $1.37 13.93
2010-02-28 16.69 $1.39 11.98
2009-11-30 14.34 $0.90 15.94
Sector Industry Market Cap Revenue
Computer and Technology Computer Software $2.257B $0.694B
Progress offers the leading platform for developing and deploying mission-critical business applications. Progress empowers enterprises and ISVs to build and deliver cognitive-first applications that harness big data to derive business insights and competitive advantage. Progress offers leading technologies for easily building powerful user interfaces across any type of device, a reliable, scalable and secure backend platform to deploy modern applications, leading data connectivity to all sources, and award-winning predictive analytics that brings the power of machine learning to any organization.
Stock Name Country Market Cap PE Ratio
Microsoft (MSFT) United States $3028.423B 36.85
Oracle (ORCL) United States $316.325B 25.75
Salesforce (CRM) United States $268.380B 44.77
Adobe (ADBE) United States $211.859B 35.42
Intuit (INTU) United States $176.646B 59.24
Synopsys (SNPS) United States $80.444B 58.03
Cadence Design Systems (CDNS) United States $76.706B 73.00
Dassault Systemes SA (DASTY) France $55.010B 36.05
Autodesk (ADSK) United States $46.615B 45.88
ANSYS (ANSS) United States $28.457B 48.01
MicroStrategy (MSTR) United States $22.714B 45.26
PTC (PTC) United States $21.572B 63.53
SS&C Technologies Holdings (SSNC) United States $15.076B 14.84
Manhattan Associates (MANH) United States $14.200B 75.37
Open Text (OTEX) Canada $9.837B 10.55
Descartes Systems Group (DSGX) Canada $8.016B 70.22
Trend Micro (TMICY) Japan $7.326B 65.00
Pegasystems (PEGA) United States $4.976B 68.16
CommVault Systems (CVLT) United States $4.254B 75.91
Blackbaud (BLKB) United States $4.234B 37.88
ACI Worldwide (ACIW) United States $3.555B 18.28
Verint Systems (VRNT) United States $1.893B 17.65
BlackBerry (BB) Canada $1.703B 0.00
Sapiens (SPNS) Israel $1.692B 23.98
PROS Holdings (PRO) United States $1.610B 0.00
Simulations Plus (SLP) United States $0.919B 67.65
Magic Software Enterprises (MGIC) Israel $0.577B 11.87
Rand Worldwide (RWWI) United States $0.574B 0.00
American Software (AMSWA) United States $0.349B 29.19
Canaan (CAN) China $0.222B 0.00
Rigetti Computing (RGTI) United States $0.189B 0.00
OptimizeRx (OPRX) United States $0.163B 0.00
Icad Inc (ICAD) United States $0.041B 0.00
Wetouch Technology (WETH) $0.032B 0.00
NetSol Technologies (NTWK) United States $0.031B 0.00
Hanryu Holdings (HRYU) South Korea $0.028B 0.00
Neonode (NEON) Sweden $0.026B 0.00
Smith Micro Software (SMSI) United States $0.020B 0.00
GSE Systems (GVP) United States $0.009B 0.00
SAP SE (SAP) Germany $0.000B 48.08